Year,Month,Day,Hour,Minute,Value (Times are PST for barometer in hPa)
2024,02,25,05,27,905.45
2024,02,25,05,28,905.45
2024,02,25,05,29,905.45
2024,02,25,05,30,905.45
2024,02,25,05,31,905.45
2024,02,25,05,32,908.87
2024,02,25,05,33,909.25
2024,02,25,05,34,909.25
2024,02,25,05,35,909.25
2024,02,25,05,36,909.25
2024,02,25,05,37,909.25
2024,02,25,05,38,909.25
2024,02,25,05,39,909.25
2024,02,25,05,40,909.25
2024,02,25,05,41,909.25
2024,02,25,05,42,909.25
2024,02,25,05,43,909.25
2024,02,25,05,44,909.25
2024,02,25,05,45,909.25
2024,02,25,05,46,909.25
2024,02,25,05,47,909.25
2024,02,25,05,48,909.25
2024,02,25,05,49,909.25
2024,02,25,05,50,909.25
2024,02,25,05,51,909.25
2024,02,25,05,52,909.25
2024,02,25,05,53,909.25
2024,02,25,05,54,909.25
2024,02,25,05,55,909.25
2024,02,25,05,56,909.72
2024,02,25,05,57,919.03
2024,02,25,05,58,919.03
2024,02,25,05,59,919.03
2024,02,25,06,00,919.03
2024,02,25,06,01,919.03
2024,02,25,06,02,919.03
2024,02,25,06,03,919.03
2024,02,25,06,04,919.03
2024,02,25,06,05,919.03
2024,02,25,06,06,919.03
2024,02,25,06,07,919.03
2024,02,25,06,08,919.03
2024,02,25,06,09,919.03
2024,02,25,06,10,919.03
2024,02,25,06,11,919.03
2024,02,25,06,12,919.03
2024,02,25,06,13,919.03
2024,02,25,06,14,919.03
2024,02,25,06,15,919.03
2024,02,25,07,40,924.86
2024,02,25,07,41,924.86
2024,02,25,07,42,924.86
2024,02,25,07,43,924.86
2024,02,25,07,44,924.86
2024,02,25,07,45,924.86
2024,02,25,07,46,924.86
2024,02,25,07,47,924.86
2024,02,25,07,48,924.86
2024,02,25,07,49,924.86
2024,02,25,07,50,924.86
2024,02,25,07,51,924.86
2024,02,25,07,52,924.86
2024,02,25,07,53,924.86
2024,02,25,07,54,924.86
2024,02,25,07,55,924.86
2024,02,25,07,56,924.86
2024,02,25,07,57,924.86
2024,02,25,07,58,924.86
2024,02,25,07,59,924.86
2024,02,25,08,00,924.86
2024,02,25,08,01,932.26
2024,02,25,08,02,932.65
2024,02,25,08,03,932.65
2024,02,25,08,04,938.84
2024,02,25,08,05,938.84
2024,02,25,08,06,938.84
2024,02,25,08,07,938.84
2024,02,25,08,08,938.84
2024,02,25,08,09,938.84
2024,02,25,08,10,938.84
2024,02,25,08,11,938.84
2024,02,25,08,12,938.84
2024,02,25,08,13,930.34
2024,02,25,08,14,930.34
2024,02,25,08,15,930.34
2024,02,25,08,16,930.34
2024,02,25,08,17,930.34
2024,02,25,08,18,930.34
2024,02,25,08,19,930.34
2024,02,25,08,20,930.34
2024,02,25,08,21,930.34
2024,02,25,08,22,930.34
2024,02,25,08,23,930.34
2024,02,25,08,24,930.34
2024,02,25,08,25,930.34
2024,02,25,08,26,930.34
2024,02,25,08,27,930.34
2024,02,25,08,28,930.34
2024,02,25,08,29,930.34
2024,02,25,08,30,930.34
2024,02,25,08,31,930.34
2024,02,25,08,32,930.34
2024,02,25,08,33,930.34
2024,02,25,08,59,905.72
2024,02,25,09,00,905.72
2024,02,25,09,01,905.72
2024,02,25,09,02,905.72
2024,02,25,09,03,905.72
2024,02,25,09,04,905.72
2024,02,25,09,05,905.72
2024,02,25,09,06,905.72
2024,02,25,09,07,905.72
2024,02,25,09,08,905.72
2024,02,25,09,09,905.72
2024,02,25,09,10,905.72
2024,02,25,09,11,905.72
2024,02,25,09,12,905.72
2024,02,25,09,13,910.26
2024,02,25,09,14,910.26
2024,02,25,09,15,910.26
2024,02,25,09,16,910.26
2024,02,25,09,17,910.26
2024,02,25,09,18,907.42
2024,02,25,09,19,907.42
2024,02,25,09,20,907.42
2024,02,25,09,21,907.42
2024,02,25,09,22,907.42
2024,02,25,09,23,907.42
2024,02,25,09,24,907.42
2024,02,25,09,25,907.42
2024,02,25,09,26,907.42
2024,02,25,09,27,907.42
2024,02,25,09,28,907.42
2024,02,25,09,29,907.42
2024,02,25,09,30,907.42
2024,02,25,09,31,907.42
2024,02,25,09,32,907.42
2024,02,25,09,33,907.42
2024,02,25,09,34,907.42
2024,02,25,09,35,907.42
2024,02,25,09,36,907.42
2024,02,25,09,37,907.42
2024,02,25,09,38,907.42
2024,02,25,09,39,907.42
2024,02,25,09,40,907.42
2024,02,25,09,41,907.42
2024,02,25,09,42,907.42
2024,02,25,09,43,907.42
2024,02,25,09,44,907.42
2024,02,25,09,45,916.26
2024,02,25,09,46,916.26
2024,02,25,09,47,916.26
2024,02,25,09,48,916.26
2024,02,25,09,49,916.26
2024,02,25,09,50,916.26
2024,02,25,09,51,923.37
2024,02,25,09,52,923.37
2024,02,25,09,53,923.37
2024,02,25,09,54,923.37
2024,02,25,09,55,923.37
2024,02,25,09,56,923.37
2024,02,25,09,57,923.37
2024,02,25,09,58,923.37
2024,02,25,09,59,923.37
2024,02,25,10,00,923.37
2024,02,25,10,01,923.37
2024,02,25,10,02,923.37
2024,02,25,10,03,923.37
2024,02,25,10,04,923.37
2024,02,25,10,05,923.37
2024,02,25,10,06,923.37
2024,02,25,10,07,913.85
2024,02,25,10,08,913.17
2024,02,25,10,09,913.17
2024,02,25,10,10,913.17
2024,02,25,10,11,913.17
2024,02,25,10,12,913.17
2024,02,25,10,13,913.17
2024,02,25,10,14,913.17
2024,02,25,10,15,913.17
2024,02,25,10,16,913.17
2024,02,25,10,17,913.17
2024,02,25,10,18,913.17
2024,02,25,10,19,919.44
2024,02,25,10,20,919.44
2024,02,25,10,21,919.44
2024,02,25,10,22,941.86
2024,02,25,10,23,941.86
2024,02,25,10,24,941.86
2024,02,25,10,25,941.86
2024,02,25,10,26,941.86
2024,02,25,10,27,941.86
2024,02,25,10,28,941.86
2024,02,25,10,29,941.86
2024,02,25,10,30,941.86
2024,02,25,10,31,941.86
2024,02,25,10,32,941.86
2024,02,25,10,33,941.86
2024,02,25,10,34,941.86
2024,02,25,10,35,941.86
2024,02,25,10,36,941.86
2024,02,25,10,37,941.86
2024,02,25,10,38,941.86
2024,02,25,10,39,941.86
2024,02,25,10,40,942.44
2024,02,25,10,41,953.51
2024,02,25,10,42,953.51
2024,02,25,10,43,953.51
2024,02,25,10,44,953.51
2024,02,25,10,45,953.51
2024,02,25,10,46,953.51
2024,02,25,10,47,953.51
2024,02,25,10,48,953.51
2024,02,25,10,49,953.51
2024,02,25,10,50,953.51
2024,02,25,10,51,953.51
2024,02,25,10,52,953.51
2024,02,25,10,53,953.51
2024,02,25,10,54,953.51
2024,02,25,10,55,953.51
2024,02,25,10,56,953.51
2024,02,25,10,57,953.51
2024,02,25,10,58,953.51
2024,02,25,10,59,953.51
2024,02,25,11,00,953.51
2024,02,25,11,01,953.51
2024,02,25,11,02,953.51
2024,02,25,11,03,932.37
2024,02,25,11,04,932.37
2024,02,25,11,05,932.37
2024,02,25,11,06,932.37
2024,02,25,11,07,932.37
2024,02,25,11,08,932.37
2024,02,25,11,09,932.37
2024,02,25,11,10,932.37
2024,02,25,11,11,932.37
2024,02,25,11,12,932.37
2024,02,25,11,13,932.37
2024,02,25,11,14,932.37
2024,02,25,11,15,932.37
2024,02,25,11,16,932.37
2024,02,25,11,17,932.37
2024,02,25,11,18,932.37
2024,02,25,11,19,932.37
2024,02,25,11,20,932.37
2024,02,25,11,21,932.37
2024,02,25,11,22,931.41
2024,02,25,11,23,913.24
2024,02,25,11,24,913.24
2024,02,25,11,25,913.24
2024,02,25,11,26,913.24
2024,02,25,11,27,913.24
2024,02,25,11,28,913.24
2024,02,25,11,29,913.24
2024,02,25,11,30,913.24
2024,02,25,11,31,913.24
2024,02,25,11,32,913.24
2024,02,25,11,33,913.24
2024,02,25,11,34,913.24
2024,02,25,11,35,913.24
2024,02,25,11,36,913.24
2024,02,25,11,37,913.24
2024,02,25,11,38,913.14
2024,02,25,11,39,913.14
2024,02,25,11,40,913.14
2024,02,25,11,41,913.14
2024,02,25,11,42,913.14
2024,02,25,11,43,913.14
2024,02,25,11,44,913.14
2024,02,25,11,45,913.14
2024,02,25,11,46,913.14
2024,02,25,11,47,913.14
2024,02,25,11,48,913.14
2024,02,25,11,49,913.14
2024,02,25,11,50,913.14
2024,02,25,11,51,913.14
2024,02,25,11,52,913.14
2024,02,25,11,53,913.14
2024,02,25,11,54,913.14
2024,02,25,11,55,913.14
2024,02,25,11,56,913.14
2024,02,25,11,57,913.14
2024,02,25,11,58,913.14
2024,02,25,11,59,913.14
2024,02,25,12,00,913.14
2024,02,25,12,01,932.12
2024,02,25,12,02,933.12
2024,02,25,12,03,933.12
2024,02,25,12,04,933.12
2024,02,25,12,05,933.12
2024,02,25,12,06,933.12
2024,02,25,12,07,933.12
2024,02,25,12,08,931.09
2024,02,25,12,09,931.09
2024,02,25,12,10,931.09
2024,02,25,12,11,931.09
2024,02,25,12,12,931.09
2024,02,25,12,13,931.09
2024,02,25,12,14,931.09
2024,02,25,12,15,931.09
2024,02,25,12,16,931.09
2024,02,25,12,17,931.09
2024,02,25,12,18,931.09
2024,02,25,12,19,931.09
2024,02,25,12,20,931.09
2024,02,25,12,21,931.09
2024,02,25,12,22,931.09
2024,02,25,12,23,931.09
2024,02,25,12,24,931.09
2024,02,25,12,25,931.09
2024,02,25,12,26,931.09
2024,02,25,12,27,931.09
2024,02,25,12,28,931.09
2024,02,25,12,29,931.09
2024,02,25,12,30,931.09
2024,02,25,12,31,931.09
2024,02,25,12,32,931.09
2024,02,25,12,33,931.09
2024,02,25,12,34,931.09
2024,02,25,12,35,931.09
2024,02,25,12,36,931.09
2024,02,25,12,37,931.09
2024,02,25,12,38,931.09
2024,02,25,12,39,931.09
2024,02,25,12,40,931.09
2024,02,25,12,41,909.55
2024,02,25,12,42,909.55
2024,02,25,12,43,909.55
2024,02,25,12,44,909.55
2024,02,25,12,45,909.55
2024,02,25,12,46,909.55
2024,02,25,12,47,909.55
2024,02,25,12,48,909.55
2024,02,25,12,49,909.55
2024,02,25,12,50,909.55
2024,02,25,12,51,909.55
2024,02,25,12,52,909.55
2024,02,25,20,04,948.26
2024,02,25,20,05,948.26
2024,02,25,20,06,948.26
2024,02,25,20,07,948.26
2024,02,25,20,08,939.44
2024,02,25,20,09,938.98
2024,02,25,20,10,938.98
2024,02,25,20,11,938.98
2024,02,25,20,12,938.98
2024,02,25,20,13,938.98
2024,02,25,20,14,938.98
2024,02,25,20,15,938.98
2024,02,25,20,16,938.98
2024,02,25,20,17,938.98
2024,02,25,20,18,938.98
2024,02,25,20,19,938.98
2024,02,25,20,20,938.98
2024,02,25,20,21,938.98
2024,02,25,20,22,938.98
2024,02,25,20,23,938.98
2024,02,25,20,24,938.98
2024,02,25,20,25,938.98
2024,02,25,20,26,938.98
2024,02,25,20,27,938.98
2024,02,25,20,28,938.98
2024,02,25,20,29,938.98
2024,02,25,20,30,938.98
2024,02,25,20,31,938.98
2024,02,25,20,32,938.98
2024,02,25,20,33,938.98
2024,02,25,20,34,938.98
2024,02,25,20,35,938.98
2024,02,25,20,36,938.98
2024,02,25,20,37,938.98
2024,02,25,20,38,938.98
2024,02,25,20,39,938.98
2024,02,25,20,40,938.98
2024,02,25,20,41,938.98
2024,02,25,20,42,938.98
2024,02,25,20,43,938.98
2024,02,25,20,44,938.98
2024,02,25,20,45,938.98
2024,02,25,20,46,938.98
2024,02,25,20,47,938.98
2024,02,25,20,48,938.98
2024,02,25,20,49,938.98
2024,02,25,20,50,938.98
2024,02,25,20,51,938.98
2024,02,25,20,52,938.98
2024,02,25,20,53,938.98
2024,02,25,20,54,938.98
2024,02,25,20,55,938.98
2024,02,25,20,56,938.98
2024,02,25,20,57,938.98
2024,02,25,20,58,938.98
2024,02,25,20,59,938.98
2024,02,25,21,00,938.98
2024,02,25,21,01,938.98
2024,02,25,21,02,938.98
2024,02,25,21,03,938.98
2024,02,25,21,04,938.98
2024,02,25,21,05,938.98
2024,02,25,21,06,938.98
2024,02,25,21,07,938.98
2024,02,25,21,08,938.98
2024,02,25,21,09,938.98
2024,02,25,21,10,938.98
2024,02,25,21,11,938.98
2024,02,25,21,12,938.98
2024,02,25,21,13,938.98
2024,02,25,21,14,938.98
2024,02,25,21,15,938.98
2024,02,25,21,16,938.98
2024,02,25,21,17,938.98
2024,02,25,21,18,938.98
2024,02,25,21,19,938.98
2024,02,25,21,20,938.98
2024,02,25,21,21,938.98
2024,02,25,21,22,938.98
2024,02,25,21,23,938.98
2024,02,25,21,24,938.98
2024,02,25,21,25,938.98
2024,02,25,21,26,938.98
2024,02,25,21,27,938.98
2024,02,25,21,28,938.98
2024,02,25,21,29,938.98
2024,02,25,21,30,938.98
2024,02,25,21,31,938.98
2024,02,25,21,32,938.98
2024,02,25,21,33,938.98
2024,02,25,21,34,938.98
2024,02,25,21,35,938.98
2024,02,25,21,36,938.98
2024,02,25,21,37,938.98
2024,02,25,21,38,938.98
2024,02,25,21,39,938.98
2024,02,25,21,40,938.98
2024,02,25,21,41,938.98
2024,02,25,21,42,938.98
2024,02,25,21,43,938.98
2024,02,25,21,44,938.98
2024,02,25,21,45,938.98
2024,02,25,21,46,938.98
2024,02,25,21,47,938.98
2024,02,25,21,48,938.98
2024,02,25,21,49,938.98
2024,02,25,21,50,938.98
2024,02,25,21,51,938.98
2024,02,25,21,52,938.98
2024,02,25,21,53,938.98
2024,02,25,21,54,938.98
2024,02,25,21,55,938.98
2024,02,25,21,56,938.98
2024,02,25,21,57,938.98
2024,02,25,21,58,938.98
2024,02,25,21,59,971.92
2024,02,25,22,00,973.65
2024,02,25,22,01,958.76
2024,02,25,22,02,957.98
2024,02,25,22,03,957.98
2024,02,25,22,04,957.98
2024,02,25,22,05,957.98
2024,02,25,22,06,957.98
2024,02,25,22,07,957.98
2024,02,25,22,08,957.98
2024,02,25,22,09,969.05
2024,02,25,22,10,969.05
2024,02,25,22,11,969.05
2024,02,25,22,12,969.05
2024,02,25,22,13,965.53
2024,02,25,22,14,965.53
2024,02,25,22,15,965.53
2024,02,25,22,16,965.53
2024,02,25,22,17,965.53
2024,02,25,22,18,965.53
2024,02,25,22,19,965.53
2024,02,25,22,20,975.01
2024,02,25,22,21,975.01
2024,02,25,22,22,975.01
2024,02,25,22,23,975.01
2024,02,25,22,24,975.01
2024,02,25,22,25,975.01
2024,02,25,22,26,975.01
2024,02,25,22,27,975.01
2024,02,25,22,28,975.01
2024,02,25,22,29,975.01
2024,02,25,22,30,975.01
2024,02,25,22,31,975.01
2024,02,25,22,32,975.01
2024,02,25,22,33,975.01
2024,02,25,22,34,975.01
2024,02,25,22,35,975.01
2024,02,25,22,36,975.01
2024,02,25,22,37,975.01
2024,02,25,22,38,975.01
2024,02,25,22,39,975.01
2024,02,25,22,40,975.01
2024,02,25,22,41,975.01
2024,02,25,22,42,975.01
2024,02,25,22,43,975.01
2024,02,25,22,44,975.01
2024,02,25,22,45,975.01
2024,02,25,22,46,975.01
2024,02,25,22,47,975.01
2024,02,25,22,48,975.01
2024,02,25,22,49,950.73
2024,02,25,22,50,950.73
2024,02,25,22,51,950.73
2024,02,25,22,52,950.73
2024,02,25,22,53,950.73
2024,02,25,22,54,950.73
2024,02,25,22,55,950.73
2024,02,25,22,56,950.73
2024,02,25,22,57,950.73
2024,02,25,22,58,950.73
2024,02,25,22,59,950.73
2024,02,25,23,00,950.73
2024,02,25,23,01,950.73
2024,02,25,23,02,950.73
2024,02,25,23,03,960.38
2024,02,25,23,04,960.38
2024,02,25,23,05,960.38
2024,02,25,23,06,960.38
2024,02,25,23,07,960.38
2024,02,25,23,08,960.38
2024,02,25,23,09,960.38
2024,02,25,23,10,960.38
2024,02,25,23,11,960.38
2024,02,25,23,12,960.38
2024,02,25,23,13,960.38
2024,02,25,23,14,960.38
2024,02,25,23,15,960.38
2024,02,25,23,16,960.38
2024,02,25,23,17,960.38
2024,02,25,23,18,960.38
2024,02,25,23,19,960.38
2024,02,25,23,20,960.38
2024,02,25,23,21,960.38
2024,02,25,23,22,960.38
2024,02,25,23,23,960.38
2024,02,25,23,24,960.38
2024,02,25,23,25,980.33
2024,02,25,23,26,980.33
2024,02,25,23,27,980.33
2024,02,25,23,28,980.33
2024,02,25,23,29,980.33
2024,02,25,23,30,980.33
2024,02,25,23,31,980.33
2024,02,25,23,32,980.33
2024,02,25,23,33,980.33
2024,02,25,23,34,980.33
2024,02,25,23,35,980.33
2024,02,25,23,36,980.33
2024,02,25,23,37,980.33
2024,02,25,23,38,980.33
2024,02,25,23,39,980.33
2024,02,25,23,40,980.33
2024,02,25,23,41,980.33
2024,02,25,23,42,980.33
2024,02,25,23,43,980.33
2024,02,25,23,44,980.33
2024,02,25,23,45,980.33
2024,02,25,23,46,980.33
2024,02,25,23,47,980.33
2024,02,25,23,48,975.86
2024,02,25,23,49,975.86
2024,02,25,23,50,975.86
2024,02,25,23,51,975.86
2024,02,25,23,52,975.86
2024,02,25,23,53,980.42
2024,02,25,23,54,980.66
2024,02,25,23,55,980.66
2024,02,25,23,56,980.66
2024,02,25,23,57,980.66
2024,02,25,23,58,980.66
2024,02,25,23,59,979.31
